Regional Weather Roundup
Issued by NWS

Home | Current Version | Previous Version | Graphics & Text | Print | Product List | Glossary On
Versions: 1 2 3 4 5 6 7 8 9 10 11 12 13 14 15 16 17 18 19 20 21 22 23 24 25 26 27
000
ASUS45 KCYS 251210
RWRWY

WYOMING REGIONAL WEATHER ROUNDUP
NATIONAL WEATHER SERVICE CHEYENNE WY
600 AM MDT MON JUL 25 2016

NOTE:  "FAIR" INDICATES FEW OR NO CLOUDS BELOW 12,000 FEET
WITH NO SIGNIFICANT WEATHER AND/OR OBSTRUCTIONS TO VISIBILITY.

WYZ001-251300-
YELLOWSTONE NATIONAL PARK

CITY           SKY/WX    TMP DP  RH WIND       PRES   REMARKS
LK YELLOWSTONE   N/A     36  32  85 NW3       30.39R
6HR MIN TEMP:  36; 6HR MAX TEMP:  46;

W YELLOWSTONE  NOT AVBL

$$
WYZ002>013-054>058-071-098>099-251300-
NORTHERN WYOMING

CITY           SKY/WX    TMP DP  RH WIND       PRES   REMARKS
JACKSON        FAIR      43  34  70 CALM      30.31R
CODY           FAIR      64  32  29 SW7       30.14S
GREYBULL       FAIR      58  39  49 S3        30.06S
6HR MIN TEMP:  57; 6HR MAX TEMP:  71;

WORLAND        FAIR      56  30  37 CALM      30.08R
6HR MIN TEMP:  51; 6HR MAX TEMP:  70;

SHERIDAN       FAIR      56  44  64 S6        30.06R
6HR MIN TEMP:  54; 6HR MAX TEMP:  66;

BUFFALO        FAIR      69  36  29 MISG      30.13S
6HR MIN TEMP:  60; 6HR MAX TEMP:  70;

GILLETTE       FAIR      62  52  69 S6        30.10F
6HR MIN TEMP:  62; 6HR MAX TEMP:  73;

HULETT         FAIR      66  52  59 W5        30.12R
NEWCASTLE      FAIR      64  48  55 E6        30.14S

$$
WYZ014>020-022>026-101>103-251300-
CENTRAL WYOMING

CITY           SKY/WX    TMP DP  RH WIND       PRES   REMARKS
BIG PINEY      FAIR      39  25  57 NE6       30.33R WCI  35
6HR MIN TEMP:  37; 6HR MAX TEMP:  55;

PINEDALE       FAIR      36  30  80 NW7       30.33R WCI  30
DUBOIS         CLOUDY    48  28  46 W12       30.31R HAZE
LANDER         FAIR      57  36  45 NW5       30.18S
6HR MIN TEMP:  56; 6HR MAX TEMP:  69;

RIVERTON       FAIR      58  31  35 W8        30.17R
6HR MIN TEMP:  56; 6HR MAX TEMP:  69;

CASPER         FAIR      51  47  86 N7        30.17S
6HR MIN TEMP:  47; 6HR MAX TEMP:  61;

DOUGLAS          N/A    N/A N/A N/A MISG      30.15S

$$
WYZ021-027>030-104>119-251300-
SOUTHERN WYOMING

CITY           SKY/WX    TMP DP  RH WIND       PRES   REMARKS
EVANSTON       FAIR      56  24  29 S6        30.31R
6HR MIN TEMP:  55; 6HR MAX TEMP:  66;

KEMMERER         N/A     45  28  53 N13       30.33S
FORT BRIDGER   SUNNY     57  19  23 CALM      30.32F
ROCK SPRINGS   FAIR      60  16  18 CALM      30.29R
6HR MIN TEMP:  57; 6HR MAX TEMP:  70;

DIXON          FAIR      44  34  67 SE6       30.31R
RAWLINS        FAIR      43  32  65 CALM      30.28R
6HR MIN TEMP:  42; 6HR MAX TEMP:  64;

SARATOGA       FAIR      46  32  57 W10       30.31R
LARAMIE        FAIR      48  46  93 S3        30.31R
6HR MIN TEMP:  48; 6HR MAX TEMP:  58;

CHEYENNE       FAIR      54  53  97 SW8       30.24S
6HR MIN TEMP:  54; 6HR MAX TEMP:  61;

TORRINGTON     FAIR      58  56  93 SE8       30.13F
6HR MIN TEMP:  58; 6HR MAX TEMP:  63;

PINE BLUFFS    FAIR      52  52 100 CALM      30.22S

$$




USA.gov is the U.S. government's official web portal to all federal, state and local government web resources and services.